Total_Precipitation_Accumulation
1.93 1.97 1.96 1.88 1.90 1.97 1.96 1.85 1.83 1.78 1.65 1.60 1.54 1.46 1.41 1.42 1.49 1.61 1.65 1.69 1.76 1.87 1.98 2.00 2.04 2.03 2.12 2.15 2.20 2.25 2.39 2.50 2.45 2.11 1.90 1.82 1.77 1.68 1.71 1.75 1.73 1.66 1.44
1.75 1.69 1.69 1.74 1.71 1.73 1.71 1.60 1.59 1.64 1.57 1.54 1.44 1.33 1.25 1.25 1.30 1.35 1.37 1.41 1.57 1.63 1.69 1.76 1.73 1.77 1.86 1.84 1.91 1.97 2.06 2.18 2.21 2.17 2.05 1.97 1.87 1.74 1.78 1.80 1.53 1.35 1.33
1.69 1.64 1.59 1.64 1.68 1.67 1.61 1.59 1.55 1.59 1.57 1.47 1.32 1.24 1.19 1.16 1.18 1.24 1.29 1.30 1.38 1.46 1.48 1.55 1.56 1.61 1.58 1.51 1.58 1.70 1.76 1.81 2.01 2.03 1.92 1.87 1.73 1.61 1.77 1.68 1.55 1.65 1.30
1.54 1.57 1.61 1.65 1.69 1.69 1.70 1.70 1.63 1.53 1.47 1.40 1.34 1.25 1.20 1.15 1.16 1.17 1.19 1.30 1.35 1.35 1.34 1.36 1.33 1.34 1.38 1.43 1.46 1.63 1.71 1.84 1.93 1.92 1.85 1.80 1.70 1.62 1.78 1.77 1.74 1.71 1.45
1.44 1.48 1.55 1.60 1.63 1.58 1.63 1.64 1.61 1.59 1.47 1.41 1.35 1.29 1.17 1.05 0.98 1.02 1.06 1.13 1.24 1.27 1.28 1.22 1.19 1.24 1.31 1.32 1.28 1.42 1.58 1.75 1.75 1.75 1.74 1.78 1.69 1.75 1.70 1.64 1.70 1.76 1.64
1.54 1.50 1.47 1.49 1.47 1.45 1.45 1.48 1.43 1.41 1.42 1.38 1.27 1.16 1.08 0.95 0.97 0.95 0.99 1.08 1.17 1.21 1.19 1.18 1.13 1.12 1.13 1.15 1.12 1.21 1.40 1.53 1.63 1.71 1.72 1.74 1.73 1.82 1.84 1.80 1.80 1.85 1.82
1.45 1.41 1.33 1.30 1.29 1.32 1.29 1.31 1.35 1.43 1.42 1.34 1.23 1.17 1.13 1.05 0.93 0.83 0.88 1.00 1.14 1.13 1.14 1.20 1.05 0.95 1.05 1.06 1.08 1.08 1.12 1.17 1.31 1.53 1.71 1.77 1.89 2.03 2.13 2.04 1.97 1.92 1.91
1.41 1.36 1.25 1.18 1.18 1.28 1.24 1.26 1.33 1.36 1.34 1.34 1.30 1.33 1.34 1.12 0.89 0.75 0.85 1.04 1.15 1.04 1.00 1.07 1.14 1.14 1.06 1.04 1.05 1.09 1.11 1.10 1.12 1.21 1.49 1.61 1.65 1.86 2.08 2.11 2.09 2.01 1.97
1.37 1.31 1.17 1.11 1.17 1.20 1.15 1.17 1.27 1.25 1.25 1.27 1.29 1.34 1.31 1.18 0.98 0.81 0.85 1.00 1.11 1.08 1.04 0.99 0.98 1.01 0.99 1.01 1.11 1.27 1.31 1.28 1.03 1.08 1.22 1.32 1.38 1.53 1.68 1.90 2.11 2.22 2.12
1.36 1.29 1.18 1.16 1.18 1.20 1.22 1.20 1.18 1.16 1.14 1.14 1.19 1.28 1.23 1.12 0.94 0.76 0.76 0.81 0.94 1.09 1.20 1.17 1.09 1.00 0.96 1.01 1.15 1.35 1.41 1.38 1.36 1.48 1.59 1.58 1.55 1.60 1.56 1.75 2.09 2.24 2.17
1.37 1.31 1.30 1.30 1.25 1.23 1.27 1.24 1.18 1.08 1.09 1.14 1.15 1.21 1.24 1.06 0.85 0.72 0.74 0.78 0.88 1.02 1.11 1.15 1.10 1.04 1.02 1.05 1.13 1.29 1.38 1.39 1.62 1.98 1.99 1.83 1.72 1.67 1.56 1.59 1.83 2.03 2.14
1.51 1.47 1.39 1.30 1.22 1.19 1.29 1.23 1.18 1.21 1.18 1.20 1.18 1.18 1.12 0.94 0.74 0.67 0.70 0.73 0.78 0.91 1.04 1.03 1.05 1.02 1.00 1.05 1.07 1.21 1.37 1.55 1.82 2.16 2.13 1.90 1.71 1.60 1.55 1.49 1.58 1.75 1.94
1.65 1.59 1.46 1.31 1.24 1.25 1.31 1.26 1.17 1.24 1.18 1.10 1.05 1.08 1.01 0.88 0.77 0.68 0.68 0.69 0.69 0.74 0.84 0.91 0.92 0.91 0.96 1.09 1.17 1.25 1.40 1.66 1.91 2.02 1.92 1.73 1.61 1.56 1.53 1.52 1.52 1.68 1.79
1.56 1.50 1.47 1.39 1.25 1.20 1.19 1.15 1.12 1.13 1.18 1.15 1.06 1.03 0.93 0.84 0.73 0.63 0.62 0.63 0.62 0.63 0.70 0.83 0.94 1.01 1.08 1.22 1.41 1.51 1.54 1.64 1.73 1.79 1.69 1.58 1.48 1.49 1.48 1.39 1.44 1.58 1.74
1.50 1.34 1.30 1.24 1.17 1.15 1.10 1.03 0.99 0.92 0.94 1.01 0.97 0.87 0.79 0.73 0.66 0.67 0.66 0.64 0.63 0.65 0.70 0.82 1.04 1.19 1.29 1.32 1.38 1.46 1.49 1.46 1.46 1.45 1.44 1.42 1.43 1.45 1.39 1.28 1.35 1.44 1.58
1.37 1.28 1.21 1.12 1.06 0.99 0.97 0.97 0.99 0.90 0.81 0.80 0.82 0.76 0.66 0.65 0.64 0.63 0.62 0.62 0.68 0.74 0.76 0.91 1.07 1.17 1.25 1.32 1.35 1.35 1.32 1.29 1.25 1.25 1.27 1.23 1.24 1.28 1.32 1.31 1.36 1.43 1.49
1.28 1.23 1.13 1.08 1.04 1.03 1.00 0.98 1.03 0.97 0.87 0.82 0.79 0.74 0.66 0.64 0.63 0.60 0.60 0.58 0.63 0.72 0.80 0.99 1.10 1.15 1.25 1.36 1.33 1.28 1.25 1.18 1.13 1.10 1.13 1.11 1.06 1.11 1.22 1.31 1.38 1.46 1.47
1.06 1.07 1.07 1.05 1.00 1.02 1.08 1.07 1.04 1.10 1.04 0.90 0.77 0.70 0.65 0.67 0.66 0.64 0.63 0.61 0.67 0.75 0.92 1.10 1.15 1.16 1.20 1.22 1.22 1.22 1.21 1.14 1.08 1.09 1.11 1.11 1.09 1.10 1.17 1.24 1.29 1.33 1.36
0.98 0.99 1.00 1.02 0.99 0.95 1.00 1.05 1.04 1.09 1.13 1.05 0.89 0.77 0.76 0.78 0.79 0.79 0.74 0.70 0.76 0.82 0.89 0.98 1.05 1.13 1.16 1.14 1.14 1.12 1.16 1.17 1.11 1.10 1.12 1.12 1.12 1.13 1.15 1.15 1.15 1.11 1.13
0.80 0.86 0.91 0.95 1.00 0.98 0.95 0.98 1.03 1.09 1.14 1.10 0.98 0.88 0.89 0.93 0.92 0.90 0.84 0.79 0.80 0.83 0.88 0.98 1.04 1.05 1.07 1.08 1.07 1.04 1.05 1.08 1.08 1.05 1.01 1.03 1.04 1.05 1.06 1.06 1.05 1.06 1.06
0.68 0.71 0.72 0.71 0.75 0.78 0.80 0.83 0.87 0.98 1.04 1.01 0.91 0.89 0.99 0.97 1.00 0.96 0.90 0.90 0.92 0.91 0.92 0.99 1.00 0.99 0.97 1.00 1.08 1.09 1.07 1.08 1.04 1.02 0.99 0.95 0.92 0.92 0.89 0.88 0.89 0.92 0.97
0.59 0.57 0.53 0.52 0.57 0.65 0.68 0.69 0.75 0.80 0.86 0.87 0.82 0.80 0.90 0.88 0.91 0.87 0.85 0.87 0.90 0.90 0.94 1.03 1.04 0.99 0.96 0.98 1.08 1.12 1.10 1.07 1.03 1.02 1.00 0.95 0.88 0.84 0.85 0.84 0.85 0.89 0.95
0.57 0.54 0.49 0.47 0.50 0.61 0.67 0.69 0.73 0.75 0.77 0.80 0.77 0.74 0.76 0.83 0.86 0.89 0.91 0.89 0.86 0.81 0.78 0.84 0.90 0.91 0.91 0.92 0.94 0.94 0.96 0.97 0.98 0.97 1.02 1.01 0.93 0.86 0.86 0.83 0.82 0.84 0.88
0.57 0.55 0.55 0.52 0.55 0.64 0.66 0.64 0.64 0.66 0.70 0.76 0.72 0.67 0.69 0.75 0.78 0.79 0.84 0.90 0.90 0.85 0.77 0.77 0.80 0.80 0.81 0.85 0.84 0.79 0.77 0.82 0.84 0.88 0.96 0.95 0.89 0.86 0.87 0.83 0.80 0.81 0.84
0.51 0.55 0.58 0.56 0.58 0.62 0.65 0.64 0.65 0.67 0.71 0.79 0.75 0.70 0.70 0.66 0.64 0.63 0.68 0.73 0.73 0.71 0.66 0.61 0.61 0.62 0.64 0.65 0.64 0.65 0.72 0.73 0.72 0.76 0.81 0.82 0.76 0.77 0.81 0.78 0.76 0.78 0.82
0.49 0.56 0.61 0.65 0.69 0.68 0.68 0.70 0.71 0.70 0.72 0.73 0.73 0.76 0.75 0.68 0.62 0.59 0.61 0.62 0.60 0.57 0.54 0.54 0.53 0.52 0.50 0.47 0.51 0.57 0.58 0.52 0.52 0.58 0.65 0.70 0.69 0.70 0.75 0.77 0.74 0.78 0.78